Regional Weather Roundup
Issued by NWS Mt. Holly, NJ

Home | Current Version | Previous Version | Text Only | Print | Product List | Glossary On
Versions: 1 2 3 4 5 6 7 8 9 10 11 12 13 14 15 16 17 18 19 20 21 22 23 24 25 26 27 28 29 30 31 32 33 34 35 36 37 38 39 40 41 42 43 44 45 46 47 48 49 50
000
ASUS41 KPHI 291010
RWRPHI

REGIONAL WEATHER ROUNDUP
NATIONAL WEATHER SERVICE MOUNT HOLLY NJ
500 AM EST MON DEC 29 2014

NOTE:  "FAIR" INDICATES FEW OR NO CLOUDS BELOW 12,000 FEET WITH NO
SIGNIFICANT WEATHER AND/OR OBSTRUCTIONS TO VISIBILITY.

 * = STATION DOES NOT REPORT PRECIPITATION (E.G. RAIN, SNOW, ETC.)
        OR FOG.

NJZ015>026-291100-
SOUTHERN NEW JERSEY

CITY           SKY/WX    TMP DP  RH WIND       PRES   REMARKS
POMONA         CLOUDY    41  35  79 N8        30.13R
RIO GRANDE*    CLOUDY    43  37  81 N6        30.11R
MILLVILLE      LGT RAIN  41  36  82 N5        30.13R
WRIGHTSTOWN    CLOUDY    38  26  61 N6        30.12R WCI  34
MOUNT HOLLY    CLOUDY    39  27  62 N6        30.15R WCI  35
TRENTON        CLOUDY    38  23  55 NW3       30.14R

$$
NJZ001>014-291100-
NORTHERN NEW JERSEY

CITY           SKY/WX    TMP DP  RH WIND       PRES   REMARKS
SUSSEX         PTCLDY    29  25  85 SW3       30.13R
ANDOVER*       NOT AVBL
MORRISTOWN     CLOUDY    36  25  64 CALM      30.14R
NEWARK         CLOUDY    39  23  52 NW6       30.15R WCI  35
TETERBORO      CLOUDY    38  23  55 NW3       30.14R
CALDWELL       CLOUDY    35  22  58 NW3       30.14S
SOMERVILLE     CLOUDY    34  25  69 CALM      30.13R
ALLAIRE*       CLOUDY    39  21  48 NW5       30.13R
TOMS RIVER*    CLOUDY    39  28  65 N6        30.15R WCI  35

$$
PAZ043-044-047-054-055-060>062-066>071-291100-
EASTERN PENNSYLVANIA

CITY           SKY/WX    TMP DP  RH WIND       PRES   REMARKS
PHILADELPHIA   CLOUDY    41  24  51 N12       30.16R
NORTH PHILA    CLOUDY    40  22  48 N6        30.17R
BLUE BELL      CLOUDY    37  27  65 CALM      30.15S
DOYLESTOWN     CLOUDY    35  23  61 CALM      30.14S
QUAKERTOWN*    CLOUDY    32  25  74 CALM      30.15S
POTTSTOWN      CLOUDY    35  25  66 CALM      30.17R
LANCASTER      CLOUDY    36  26  67 N5        30.16R WCI  32
COATESVILLE    CLOUDY    37  28  70 N7        30.13F WCI  32
READING        MOCLDY    36  23  59 NW5       30.15S WCI  32
ALLENTOWN      MOCLDY    36  22  56 CALM      30.14R
MOUNT POCONO   PTCLDY    29  20  69 NW8       30.06R WCI  21
HAZLETON       PTCLDY    32  23  69 W3        30.13R
WILKES BARRE   PTCLDY    32  22  66 SW9       30.13R WCI  24

$$
DEZALL-MDZ008-012-015-019-020-291100-
DELAWARE AND EASTERN MARYLAND

CITY           SKY/WX    TMP DP  RH WIND       PRES   REMARKS
WILMINGTON     CLOUDY    41  31  67 N7        30.16R
DOVER          CLOUDY    41  39  93 N9        30.12S
GEORGETOWN     LGT RAIN  43  38  82 N6        30.12F
EASTON         DRIZZLE   43  43 100 CALM      30.17S
PATUXENT       CLOUDY    42  36  79 N10       30.13F
OCEAN CITY     CLOUDY    43  41  93 N6        30.11F
WALLOPS ISLAND LGT RAIN  46  44  93 NE13G20   30.10F
CAMBRIDGE      CLOUDY    43  37  81 N5        30.12F
SALISBURY      LGT RAIN  44  39  82 N7        30.11F

$$
PAZ001-021-NYZ056-072-MDZ011-DCZ001-291100-
OTHER NEARBY LOCATIONS

CITY           SKY/WX    TMP DP  RH WIND       PRES   REMARKS
HARRISBURG     CLOUDY    36  24  62 CALM      30.16S
STATE COLLEGE  MOCLDY    31  25  80 W6        30.13F WCI  25
WILLIAMSPORT   MOCLDY    29  23  78 N3        30.14F
BINGHAMTON     PTCLDY    26  20  77 NW6       30.09R WCI  19
NEW YORK CITY  CLOUDY    39  22  50 VRB5      30.16S
BALTIMORE      CLOUDY    42  32  67 N5        30.14F
WASHINGTON DC  CLOUDY    45  35  68 N7        30.16S

$$


USA.gov is the U.S. government's official web portal to all federal, state and local government web resources and services.